This is the latest recevied weather packets stored in our database for station/object W9GWP. If no packets are shown the sender has not sent any weather packets the latest 10 day(s).
| Time | Temp. | Humidity | Pressure | Rain* | Wind** | Luminosity | Snow |
|---|---|---|---|---|---|---|---|
| 1778035559 | 10.56° C | 50% | 1039.4 hPa | 0 mm | - | 0 W/m² | - |
| 1778034655 | 10.56° C | 50% | 1039 hPa | 0 mm | - | 0 W/m² | - |
| 1778033753 | 10.56° C | 49% | 1038.9 hPa | 0 mm | - | 0 W/m² | - |
| 1778032850 | 10° C | 53% | 1038.6 hPa | 0 mm | - | 0 W/m² | - |
| 1778031948 | 10.56° C | 50% | 1038.5 hPa | 0 mm | - | 0 W/m² | - |
| 1778031044 | 10.56° C | 49% | 1038.3 hPa | 0 mm | - | 0 W/m² | - |
| 1778030141 | 11.11° C | 47% | 1038.1 hPa | 0 mm | - | 0 W/m² | - |
| 1778029238 | 11.67° C | 46% | 1037.7 hPa | 0 mm | - | 0 W/m² | - |
| 1778028335 | 11.67° C | 44% | 1037.8 hPa | 0 mm | - | 4 W/m² | - |
| 1778027430 | 12.22° C | 43% | 1037.3 hPa | 0 mm | - | 16 W/m² | - |
| 1778026524 | 12.22° C | 42% | 1037.5 hPa | 0 mm | - | 24 W/m² | - |
| 1778025622 | 12.22° C | 40% | 1037.5 hPa | 0 mm | - | 35 W/m² | - |
| 1778024719 | 12.78° C | 38% | 1037.5 hPa | 0 mm | - | 46 W/m² | - |
| 1778023817 | 12.78° C | 39% | 1037.6 hPa | 0 mm | - | 50 W/m² | - |
| 1778022914 | 12.78° C | 40% | 1037.4 hPa | 0 mm | - | 49 W/m² | - |
| 1778022012 | 12.78° C | 40% | 1037.4 hPa | 0 mm | - | 55 W/m² | - |
| 1778021108 | 13.33° C | 39% | 1037.7 hPa | 0 mm | - | 73 W/m² | - |
| 1778020204 | 13.33° C | 40% | 1037.7 hPa | 0 mm | - | 109 W/m² | - |
| 1778019300 | 12.78° C | 39% | 1037.6 hPa | 0 mm | - | 126 W/m² | - |
| 1778018397 | 12.78° C | 38% | 1037.8 hPa | 0 mm | - | 125 W/m² | - |
| 1778017496 | 13.33° C | 39% | 1037.7 hPa | 0 mm | - | 159 W/m² | - |
| 1778016592 | 13.33° C | 37% | 1037.8 hPa | 0 mm | - | 157 W/m² | - |
| 1778015689 | 13.33° C | 38% | 1037.6 hPa | 0 mm | - | 209 W/m² | - |
| 1778014785 | 13.33° C | 35% | 1037.9 hPa | 0 mm | - | 241 W/m² | - |
| 1778013883 | 13.33° C | 36% | 1037.9 hPa | 0 mm | - | 212 W/m² | - |
* Rain latest hour (hover to see other rain measurements)
** Current wind speed in m/s (hover to see current wind gust speed)